TimeWET,TemperatureF,Dew PointF,Humidity,Sea Level PressureIn,VisibilityMPH,Wind Direction,Wind SpeedMPH,Gust SpeedMPH,PrecipitationIn,Events,Conditions,WindDirDegrees,DateUTC
12:00 AM,68,64,85,29.99,5,Calm,Calm,,,,Partly Cloudy,,2012-10-12 00:00:00
12:00 AM,68.0,64.4,88,29.98,5.0,Calm,Calm,-,N/A,,Scattered Clouds,0,2012-10-12 00:00:00
2:00 AM,66.2,62.6,88,29.98,6.2,ENE,4.6,-,N/A,,Scattered Clouds,70,2012-10-12 02:00:00
3:00 AM,65,62,89,29.97,6,East,3.5,,,,Partly Cloudy,90,2012-10-12 03:00:00
3:00 AM,64.4,62.6,94,29.95,6.2,East,3.5,-,N/A,,Scattered Clouds,90,2012-10-12 03:00:00
4:00 AM,64.4,62.6,94,29.95,6.2,ENE,3.5,-,N/A,,Unknown,70,2012-10-12 04:00:00
5:00 AM,64.4,60.8,88,29.95,6.2,East,2.3,-,N/A,,Unknown,90,2012-10-12 05:00:00
6:00 AM,63,61,89,29.98,6,ENE,2.3,,,,Partly Cloudy,70,2012-10-12 06:00:00
6:00 AM,64.4,60.8,88,29.98,6.2,Calm,Calm,-,N/A,,Scattered Clouds,0,2012-10-12 06:00:00
7:00 AM,62.6,60.8,94,29.98,6.2,Calm,Calm,-,N/A,,Scattered Clouds,0,2012-10-12 07:00:00
8:00 AM,68.0,64.4,88,30.01,6.2,South,3.5,-,N/A,,Scattered Clouds,190,2012-10-12 08:00:00
9:00 AM,70,65,81,30.03,,South,1.2,,,,,190,2012-10-12 09:00:00
9:00 AM,69.8,66.2,88,30.04,6.2,Variable,1.2,-,N/A,,Unknown,0,2012-10-12 09:00:00
11:00 AM,69.8,64.4,83,30.04,5.0,SW,4.6,-,N/A,,Mostly Cloudy,230,2012-10-12 11:00:00
12:00 PM,74,65,67,30.02,5,West,6.9,,,,Mostly Cloudy,260,2012-10-12 12:00:00
12:00 PM,75.2,64.4,69,30.01,5.0,West,6.9,-,N/A,,Mostly Cloudy,260,2012-10-12 12:00:00
1:00 PM,77.0,64.4,65,29.98,5.0,West,8.1,-,N/A,,Partly Cloudy,260,2012-10-12 13:00:00
2:00 PM,77.0,64.4,65,29.98,5.0,WSW,9.2,-,N/A,,Partly Cloudy,240,2012-10-12 14:00:00
3:00 PM,78,65,56,29.97,6,WSW,11.5,,,,Partly Cloudy,240,2012-10-12 15:00:00
3:00 PM,78.8,64.4,61,29.98,-9999.0,WSW,11.5,-,N/A,,Clear,240,2012-10-12 15:00:00
4:00 PM,77.0,64.4,65,29.95,6.2,SW,11.5,-,N/A,,Partly Cloudy,230,2012-10-12 16:00:00
5:00 PM,75.2,62.6,65,29.95,6.2,SSW,9.2,-,N/A,,Partly Cloudy,210,2012-10-12 17:00:00
6:00 PM,71,63,68,29.96,6,SSW,12.7,,,,Scattered Clouds,210,2012-10-12 18:00:00
6:00 PM,71.6,62.6,73,29.95,6.2,SSW,12.7,-,N/A,,Partly Cloudy,210,2012-10-12 18:00:00
7:00 PM,68.0,62.6,83,29.98,6.2,South,8.1,-,N/A,,Scattered Clouds,190,2012-10-12 19:00:00
8:00 PM,68.0,62.6,83,29.98,6.2,SSW,6.9,-,N/A,,Scattered Clouds,200,2012-10-12 20:00:00
9:00 PM,67,62,79,30.01,6,South,2.3,,,,Scattered Clouds,190,2012-10-12 21:00:00
9:00 PM,66.2,62.6,88,30.01,6.2,Variable,2.3,-,N/A,,Scattered Clouds,0,2012-10-12 21:00:00
10:00 PM,68.0,62.6,83,30.01,6.2,Calm,Calm,-,N/A,,Unknown,0,2012-10-12 22:00:00
11:00 PM,68.0,62.6,83,30.04,6.2,Calm,Calm,-,N/A,,Unknown,0,2012-10-12 23:00:00